User: anonymous
Location: Moonridge Observatory
(39.2268°N, 77.7914°W)
Time: 00:17:55
(UTC-04:00)
Language:

CZ-2C R/B - Orbit

View from above orbital plane
View from above orbital plane
View from above satellite
View from above satellite

Ground track
Ground track

The orbit data is extracted from the following two-line orbital elements,

1 28480U 04046B   14265.04091183  .00000086  00000-0  48924-4 0  4440
2 28480 098.1035 053.6281 0141339 295.5107 172.1876 14.25331827511886
Epoch (UTC): 22 September 2014 00:58:54
Eccentricity: 0.0141339
inclination: 98.1035°
perigee height: 706 km
apogee height: 909 km
right ascension of ascending node: 53.6281°
argument of perigee: 295.5107°
revolutions per day: 14.25331827
mean anomaly at epoch: 172.1876°
orbit number at epoch: 51188

The dashed part of the orbit path shows where the satellite is in the earth's shadow,  

DLR